Location: Saint-Hippolyte
(43.6394°N, 4.7559°E)
Time: 15:33:25
(UTC+00:00)

FALCON 9 DEB - Pass Details

Date: 24 October 2020
Orbit: 379 x 394 km, 53.0° (Epoch: 23 November)

Event Time Altitude Azimuth Distance (km) Brightness Sun altitude
Rises 17:56:18 0° 223° (SW) 2,288 7.5 -13.9°
Reaches altitude 10° 17:58:23 10° 218° (SW) 1,431 6.3 -14.3°
Maximum altitude 18:01:31 53° 141° (SE) 490 3.1 -14.9°
Enters shadow 18:02:30 36° 85° (E) 646 3.4 -15.0°
